TimeEST,TemperatureF,Dew PointF,Humidity,Sea Level PressureIn,VisibilityMPH,Wind Direction,Wind SpeedMPH,Gust SpeedMPH,PrecipitationIn,Events,Conditions,WindDirDegrees,DateUTC
12:15 AM,41.0,37.4,87,30.06,10.0,NNE,9.2,-,N/A,,Overcast,30,2012-11-04 04:15:00
12:35 AM,41.0,37.4,87,30.06,10.0,NE,6.9,-,N/A,,Overcast,50,2012-11-04 04:35:00
12:55 AM,41.0,37.4,87,30.07,10.0,NNE,6.9,-,N/A,,Overcast,30,2012-11-04 04:55:00
1:15 AM,39.2,37.4,93,30.07,10.0,NE,4.6,-,N/A,,Overcast,40,2012-11-04 05:15:00
1:35 AM,39.2,37.4,93,30.08,10.0,NNE,6.9,-,N/A,,Overcast,30,2012-11-04 05:35:00
1:55 AM,39.2,37.4,93,30.08,10.0,NNE,6.9,-,N/A,,Overcast,20,2012-11-04 05:55:00
1:15 AM,39.2,37.4,93,30.07,10.0,NE,4.6,-,N/A,,Overcast,50,2012-11-04 06:15:00
1:35 AM,39.2,37.4,93,30.08,10.0,NNE,4.6,-,N/A,,Overcast,30,2012-11-04 06:35:00
1:55 AM,39.2,37.4,93,30.09,10.0,NNE,5.8,-,N/A,,Overcast,30,2012-11-04 06:55:00
2:15 AM,37.4,37.4,100,30.08,10.0,NNE,5.8,-,N/A,,Overcast,30,2012-11-04 07:15:00
2:35 AM,37.4,37.4,100,30.08,10.0,NNE,6.9,-,N/A,,Overcast,30,2012-11-04 07:35:00
2:55 AM,37.4,35.6,93,30.08,10.0,NE,5.8,-,N/A,,Overcast,40,2012-11-04 07:55:00
3:15 AM,35.6,35.6,100,30.08,7.0,North,3.5,-,N/A,,Overcast,10,2012-11-04 08:15:00
3:35 AM,35.6,35.6,100,30.08,7.0,NNE,5.8,-,N/A,,Mostly Cloudy,20,2012-11-04 08:35:00
3:55 AM,35.6,33.8,93,30.08,7.0,North,3.5,-,N/A,,Mostly Cloudy,360,2012-11-04 08:55:00
4:15 AM,33.8,33.8,100,30.08,5.0,North,3.5,-,N/A,,Scattered Clouds,10,2012-11-04 09:15:00
4:35 AM,33.8,33.8,100,30.09,4.0,NNW,3.5,-,N/A,,Clear,340,2012-11-04 09:35:00
4:55 AM,32.0,32.0,100,30.10,2.5,NNW,4.6,-,N/A,,Clear,340,2012-11-04 09:55:00
5:15 AM,32.0,32.0,100,30.11,3.0,North,5.8,-,N/A,,Clear,350,2012-11-04 10:15:00
5:35 AM,33.8,33.8,100,30.11,4.0,North,4.6,-,N/A,,Clear,350,2012-11-04 10:35:00
5:55 AM,33.8,33.8,100,30.11,4.0,North,4.6,-,N/A,,Mostly Cloudy,350,2012-11-04 10:55:00
6:15 AM,33.8,32.0,93,30.11,5.0,NNW,4.6,-,N/A,,Scattered Clouds,340,2012-11-04 11:15:00
6:35 AM,32.0,32.0,100,30.12,4.0,North,4.6,-,N/A,,Clear,350,2012-11-04 11:35:00
6:55 AM,32.0,32.0,100,30.12,3.0,NNW,3.5,-,N/A,,Clear,340,2012-11-04 11:55:00
7:15 AM,32.0,32.0,100,30.12,2.5,North,4.6,-,N/A,,Clear,350,2012-11-04 12:15:00
7:35 AM,32.0,32.0,100,30.12,2.5,North,5.8,-,N/A,,Clear,350,2012-11-04 12:35:00
7:55 AM,32.0,32.0,100,30.14,2.5,NNW,3.5,-,N/A,,Clear,340,2012-11-04 12:55:00
8:15 AM,32.0,32.0,100,30.14,3.0,Calm,Calm,-,N/A,,Clear,0,2012-11-04 13:15:00
8:35 AM,33.8,33.8,100,30.15,4.0,North,3.5,-,N/A,,Clear,350,2012-11-04 13:35:00
8:55 AM,35.6,35.6,100,30.15,7.0,North,5.8,-,N/A,,Scattered Clouds,360,2012-11-04 13:55:00
9:15 AM,37.4,35.6,93,30.15,10.0,North,5.8,-,N/A,,Mostly Cloudy,10,2012-11-04 14:15:00
9:35 AM,39.2,35.6,87,30.14,10.0,NNE,3.5,-,N/A,,Mostly Cloudy,30,2012-11-04 14:35:00
9:55 AM,41.0,35.6,81,30.14,10.0,NNE,4.6,-,N/A,,Mostly Cloudy,20,2012-11-04 14:55:00
10:15 AM,41.0,35.6,81,30.14,10.0,NNE,4.6,-,N/A,,Mostly Cloudy,30,2012-11-04 15:15:00
10:35 AM,42.8,35.6,76,30.16,10.0,NE,4.6,-,N/A,,Scattered Clouds,50,2012-11-04 15:35:00
10:55 AM,44.6,37.4,76,30.16,10.0,NNE,3.5,-,N/A,,Scattered Clouds,30,2012-11-04 15:55:00
11:15 AM,44.6,35.6,71,30.15,10.0,East,4.6,-,N/A,,Scattered Clouds,90,2012-11-04 16:15:00
11:35 AM,44.6,35.6,71,30.16,10.0,NE,3.5,-,N/A,,Scattered Clouds,40,2012-11-04 16:35:00
11:55 AM,44.6,35.6,71,30.15,10.0,NNE,3.5,-,N/A,,Scattered Clouds,20,2012-11-04 16:55:00
12:15 PM,44.6,35.6,71,30.14,10.0,NNE,4.6,-,N/A,,Mostly Cloudy,30,2012-11-04 17:15:00
12:35 PM,46.4,33.8,62,30.13,10.0,Calm,Calm,-,N/A,,Scattered Clouds,0,2012-11-04 17:35:00
12:55 PM,46.4,35.6,66,30.13,10.0,NNE,5.8,-,N/A,,Scattered Clouds,20,2012-11-04 17:55:00
1:15 PM,46.4,35.6,66,30.13,10.0,NNW,5.8,-,N/A,,Mostly Cloudy,330,2012-11-04 18:15:00
1:35 PM,48.2,33.8,58,30.12,10.0,North,5.8,-,N/A,,Mostly Cloudy,360,2012-11-04 18:35:00
1:55 PM,48.2,35.6,62,30.12,10.0,NE,5.8,-,N/A,,Scattered Clouds,40,2012-11-04 18:55:00
2:15 PM,48.2,35.6,62,30.12,10.0,North,4.6,-,N/A,,Scattered Clouds,10,2012-11-04 19:15:00
2:35 PM,50.0,35.6,58,30.12,10.0,North,5.8,-,N/A,,Scattered Clouds,350,2012-11-04 19:35:00
2:55 PM,50.0,33.8,54,30.12,10.0,North,9.2,-,N/A,,Scattered Clouds,350,2012-11-04 19:55:00
3:15 PM,48.2,33.8,58,30.12,10.0,North,8.1,-,N/A,,Scattered Clouds,10,2012-11-04 20:15:00
3:35 PM,48.2,33.8,58,30.12,10.0,North,6.9,-,N/A,,Clear,360,2012-11-04 20:35:00
3:55 PM,50.0,33.8,54,30.12,10.0,NNE,5.8,-,N/A,,Clear,20,2012-11-04 20:55:00
4:15 PM,48.2,33.8,58,30.11,10.0,North,3.5,-,N/A,,Clear,350,2012-11-04 21:15:00
4:35 PM,48.2,32.0,54,30.11,10.0,NE,4.6,-,N/A,,Clear,50,2012-11-04 21:35:00
4:55 PM,46.4,33.8,62,30.11,10.0,North,3.5,-,N/A,,Clear,10,2012-11-04 21:55:00
5:15 PM,44.6,33.8,66,30.11,10.0,North,3.5,-,N/A,,Clear,350,2012-11-04 22:15:00
5:35 PM,42.8,32.0,66,30.11,10.0,Calm,Calm,-,N/A,,Clear,0,2012-11-04 22:35:00
5:55 PM,41.0,32.0,70,30.11,10.0,Calm,Calm,-,N/A,,Clear,0,2012-11-04 22:55:00
6:15 PM,41.0,32.0,70,30.12,10.0,Calm,Calm,-,N/A,,Clear,0,2012-11-04 23:15:00
6:35 PM,37.4,32.0,81,30.12,10.0,Calm,Calm,-,N/A,,Clear,0,2012-11-04 23:35:00
6:55 PM,37.4,32.0,81,30.13,10.0,NW,3.5,-,N/A,,Clear,310,2012-11-04 23:55:00
7:15 PM,39.2,32.0,75,30.13,10.0,NNW,3.5,-,N/A,,Clear,340,2012-11-05 00:15:00
7:35 PM,41.0,32.0,70,30.14,10.0,Calm,Calm,-,N/A,,Clear,0,2012-11-05 00:35:00
7:55 PM,37.4,32.0,81,30.14,10.0,NNW,5.8,-,N/A,,Clear,340,2012-11-05 00:55:00
8:15 PM,35.6,32.0,87,30.14,10.0,NNW,4.6,-,N/A,,Clear,340,2012-11-05 01:15:00
8:35 PM,35.6,32.0,87,30.15,10.0,North,4.6,-,N/A,,Clear,350,2012-11-05 01:35:00
8:55 PM,35.6,32.0,87,30.15,10.0,North,4.6,-,N/A,,Clear,350,2012-11-05 01:55:00
9:15 PM,35.6,32.0,87,30.15,10.0,North,5.8,-,N/A,,Clear,360,2012-11-05 02:15:00
9:35 PM,35.6,32.0,87,30.16,10.0,North,6.9,-,N/A,,Clear,10,2012-11-05 02:35:00
9:55 PM,33.8,32.0,93,30.16,10.0,North,5.8,-,N/A,,Clear,10,2012-11-05 02:55:00
10:15 PM,33.8,30.2,87,30.16,10.0,North,4.6,-,N/A,,Clear,10,2012-11-05 03:15:00
10:35 PM,33.8,30.2,87,30.15,10.0,NNW,3.5,-,N/A,,Clear,340,2012-11-05 03:35:00
10:55 PM,32.0,30.2,93,30.15,10.0,North,5.8,-,N/A,,Clear,350,2012-11-05 03:55:00